OpenBCM V1.07b12 (Linux)

Packet Radio Mailbox

DB0FHN

[JN59NK Nuernberg]

 Login: GUEST





  
UR7IWZ > KEPS     25.04.03 08:50l 151 Lines 3942 Bytes #999 (0) @ AMSAT
BID : ORB03114.O
Read: DB0FHN GUEST
Subj: Orbital Elements  03114.OSCAR
Path: DB0FHN<DB0ZWI<DB0HOT<OK0PKL<OK0PPL<RZ6HXA<UT4NF<UT1IZA<UR7IWZ
Sent: 030425/0636Z @:UR7IWZ.DON.UKR.EU #:572 XFBB7.04 Bid:ORB03114.O
From: UR7IWZ@UR7IWZ.DON.UKR.EU
To  : KEPS@AMSAT


HR AMSAT ORBITAL ELEMENTS FOR OSCAR SATELLITES
FROM WA5QGD FORT WORTH,TX April 24, 2003
SEND SUBSCRIBE/UNSUBSCRIBE TO majordomo@amsat.org ONLY
BID: ORB03114.O
TO ALL RADIO AMATEURS BT

Satellite: AO-07
Catalog number: 07530
Epoch time:      03114.65421652
Element set:     165
Inclination:      101.7499 deg
RA of node:       161.7987 deg
Eccentricity:    0.0012176
Arg of perigee:   313.3465 deg
Mean anomaly:      46.6589 deg
Mean motion:   12.53565273 rev/day
Decay rate:       -2.9e-07 rev/day^2
Epoch rev:           30134
Checksum:              297

Satellite: AO-10
Catalog number: 14129
Epoch time:      03112.06477433
Element set:     929
Inclination:       26.0883 deg
RA of node:       154.0763 deg
Eccentricity:    0.6002109
Arg of perigee:   345.9118 deg
Mean anomaly:       2.9387 deg
Mean motion:    2.05866513 rev/day
Decay rate:        8.0e-07 rev/day^2
Epoch rev:           14932
Checksum:              284

Satellite: UO-11
Catalog number: 14781
Epoch time:      03113.92200900
Element set:     129
Inclination:       98.1277 deg
RA of node:        88.3929 deg
Eccentricity:    0.0009886
Arg of perigee:    11.5935 deg
Mean anomaly:     348.5502 deg
Mean motion:   14.78185761 rev/day
Decay rate:      1.034e-05 rev/day^2
Epoch rev:            2574
Checksum:              303

Satellite: RS-10/11
Catalog number: 18129
Epoch time:      03114.09117468
Element set:     227
Inclination:       82.9199 deg
RA of node:        98.8312 deg
Eccentricity:    0.0013299
Arg of perigee:    51.7421 deg
Mean anomaly:     308.4926 deg
Mean motion:   13.72707584 rev/day
Decay rate:        4.9e-07 rev/day^2
Epoch rev:           79336
Checksum:              321

Satellite: FO-20
Catalog number: 20480
Epoch time:      03113.94016040
Element set:    0485
Inclination:      099.0566 deg
RA of node:       064.6211 deg
Eccentricity:    0.0539743
Arg of perigee:   218.0040 deg
Mean anomaly:     138.1803 deg
Mean motion:   12.83331195 rev/day
Decay rate:       -5.3e-07 rev/day^2
Epoch rev:           61877
Checksum:              275

Satellite: RS-12/13
Catalog number: 21089
Epoch time:      03114.55083539
Element set:     507
Inclination:       82.9212 deg
RA of node:       133.1744 deg
Eccentricity:    0.0030814
Arg of perigee:   103.6662 deg
Mean anomaly:     256.7921 deg
Mean motion:   13.74411402 rev/day
Decay rate:        7.8e-07 rev/day^2
Epoch rev:           61271
Checksum:              275

Satellite: RS-15
Catalog number: 23439
Epoch time:      03114.03878593
Element set:     697
Inclination:       64.8138 deg
RA of node:       297.2315 deg
Eccentricity:    0.0146453
Arg of perigee:   102.5715 deg
Mean anomaly:     259.1632 deg
Mean motion:   11.27548633 rev/day
Decay rate:       -4.2e-07 rev/day^2
Epoch rev:           34286
Checksum:              313

Satellite: FO-29
Catalog number: 24278
Epoch time:      03113.95829576
Element set:    0578
Inclination:      098.5483 deg
RA of node:       256.4646 deg
Eccentricity:    0.0351447
Arg of perigee:   049.6580 deg
Mean anomaly:     313.4699 deg
Mean motion:   13.52879009 rev/day
Decay rate:       -2.3e-07 rev/day^2
Epoch rev:           33001
Checksum:              342

Satellite: SO-33
Catalog number: 25509
Epoch time:      03113.50319315
Element set:     830
Inclination:       31.4266 deg
RA of node:       152.1009 deg
Eccentricity:    0.0357258
Arg of perigee:   141.2158 deg
Mean anomaly:     221.4682 deg
Mean motion:   14.27486859 rev/day
Decay rate:       2.82e-06 rev/day^2
Epoch rev:           23445
Checksum:              284

Satellite: AO-40
Catalog number: 26609
Epoch time:      03109.00807478
Element set:     325
Inclination:        8.5228 deg
RA of node:        53.4139 deg
Eccentricity:    0.7957312
Arg of perigee:   165.7240 deg
Mean anomaly:     252.3808 deg
Mean motion:    1.25596241 rev/day
Decay rate:      -3.46e-06 rev/day^2
Epoch rev:            1133
Checksum:              288



Read previous mail | Read next mail


 18.09.2025 14:05:50lGo back Go up